Springfield, MO

6:21 AM CST on November 21, 2017 (GMT -0600)
Springfield-Branson Regional

Weather History for KSGF - February, 2015

Change the Weather History Date:

Tuesday, February 3, 2015

  Actual Average Record
Temperature  
Mean Temperature 37 °F 34 °F  
Max Temperature 53 °F 45 °F 76 °F (1962)
Min Temperature 20 °F 23 °F -9 °F (2011)
Degree Days  
Heating Degree Days 28 31  
Month to date heating degree days 105 93  
Since 1 July heating degree days 2813 2906  
Cooling Degree Days 0 0  
Month to date cooling degree days 0 0  
Year to date cooling degree days 0 0  
Moisture  
Dew Point 20 °F    
Average Humidity 56    
Maximum Humidity 84    
Minimum Humidity 28    
Precipitation  
Precipitation 0.00 in 0.08 in 0.95 in (2012)
Month to date precipitation 0.35 0.23  
Year to date precipitation 1.16 2.70  
Snow  
Snow 0.00 in - - ()
Month to date snowfall T  
Since 1 July snowfall 2.5  
Snow Depth 0.00 in    
Sea Level Pressure  
Sea Level Pressure 30.16 in    
Wind  
Wind Speed 11 mph (South)    
Max Wind Speed 26 mph    
Max Gust Speed 31 mph    
Visibility 10 miles    
Events      
T = Trace of Precipitation, MM = Missing Value Source: NWS Daily Summary

Daily Weather History Graph

Daily Weather History Graph

Search for Another Location

Airport or City:

Trip Planner

Search our weather history database for the weather conditions in past years. The results will help you decide how hot, cold, wet, or windy it might be!

Date:

Astronomy

Feb. 03, 2015 Rise Set
Actual Time 7:14 AM CST 5:40 PM CST
Civil Twilight 6:47 AM CST 6:07 PM CST
Nautical Twilight 6:16 AM CST 6:38 PM CST
Astronomical Twilight 5:46 AM CST 7:09 PM CST
Moon 5:45 PM CST (2/3) 6:44 AM CST (2/3)
Length of Visible Light 11h 19m
Length of Day
10h 25m
Full, 100% of the Moon is Illuminated
Feb 3
Full
Feb 3
Full
Feb 11
Last Quarter
Feb 18
New
Feb 25
First Quarter

Hourly Weather History & Observations

Time (CST) Temp. Windchill Dew Point Humidity Pressure Visibility Wind Dir Wind Speed Gust Speed Precip Events Conditions
12:52 AM 23.0 °F 18.4 °F 15.1 °F 72% 30.25 in 10.0 mi South 3.5 mph - N/A   Clear
1:52 AM 19.9 °F 12.1 °F 15.1 °F 81% 30.25 in 10.0 mi SSE 5.8 mph - N/A   Clear
2:52 AM 21.9 °F 11.7 °F 16.0 °F 78% 30.23 in 10.0 mi SSE 9.2 mph - N/A   Clear
3:52 AM 21.0 °F 13.4 °F 15.1 °F 78% 30.22 in 10.0 mi South 5.8 mph - N/A   Clear
4:52 AM 19.9 °F 12.1 °F 15.1 °F 81% 30.22 in 10.0 mi South 5.8 mph - N/A   Clear
5:52 AM 21.0 °F 11.4 °F 15.1 °F 78% 30.24 in 10.0 mi South 8.1 mph - N/A   Clear
6:52 AM 21.0 °F 10.6 °F 16.0 °F 81% 30.24 in 10.0 mi SSE 9.2 mph - N/A   Clear
7:52 AM 24.1 °F 13.7 °F 17.1 °F 75% 30.24 in 10.0 mi South 10.4 mph - N/A   Clear
8:52 AM 28.9 °F 21.1 °F 19.0 °F 67% 30.25 in 10.0 mi South 8.1 mph - N/A   Clear
9:52 AM 34.0 °F 26.6 °F 21.0 °F 59% 30.24 in 10.0 mi SSW 9.2 mph - N/A   Clear
10:52 AM 39.9 °F 33.9 °F 23.0 °F 51% 30.22 in 10.0 mi South 9.2 mph - N/A   Clear
11:52 AM 45.0 °F 38.9 °F 21.9 °F 40% 30.20 in 10.0 mi SW 12.7 mph 20.7 mph N/A   Clear
12:52 PM 48.2 °F - 24.8 °F 40% 30.14 in 10.0 mi South 16.1 mph 21.9 mph N/A   Clear
1:52 PM 51.1 °F - 23.0 °F 33% 30.13 in 10.0 mi SW 15.0 mph - N/A   Clear
2:52 PM 53.1 °F - 21.0 °F 29% 30.09 in 10.0 mi SW 24.2 mph 29.9 mph N/A   Clear
3:52 PM 53.1 °F - 21.9 °F 30% 30.09 in 10.0 mi SW 20.7 mph 25.3 mph N/A   Clear
4:52 PM 52.0 °F - 21.9 °F 31% 30.07 in 10.0 mi SSW 15.0 mph - N/A   Clear
5:52 PM 45.0 °F 40.1 °F 23.0 °F 42% 30.09 in 10.0 mi SSW 9.2 mph - N/A   Clear
6:52 PM 41.0 °F 34.3 °F 21.9 °F 47% 30.09 in 10.0 mi South 11.5 mph - N/A   Clear
7:52 PM 42.1 °F 35.7 °F 23.0 °F 47% 30.08 in 10.0 mi South 11.5 mph - N/A   Clear
8:52 PM 42.1 °F 35.7 °F 23.0 °F 47% 30.08 in 10.0 mi South 11.5 mph - N/A   Clear
9:52 PM 37.0 °F 31.0 °F 23.0 °F 57% 30.09 in 10.0 mi South 8.1 mph - N/A   Clear
10:52 PM 37.0 °F 31.0 °F 23.0 °F 57% 30.10 in 10.0 mi South 8.1 mph - N/A   Clear
11:52 PM 32.0 °F 25.6 °F 23.0 °F 69% 30.07 in 10.0 mi South 6.9 mph - N/A   Clear